Date,TemperatureHighF,TemperatureAvgF,TemperatureLowF,DewpointHighF,DewpointAvgF,DewpointLowF,HumidityHigh,HumidityAvg,HumidityLow,PressureMaxIn,PressureMinIn,WindSpeedMaxMPH,WindSpeedAvgMPH,GustSpeedMaxMPH,PrecipitationSumIn
2013-9-7,88.9,84.7,81.1,80.4,78.6,77.2,88,82,71,29.85,29.80,8,1,8,0.00
2013-9-8,92.3,81.0,73.2,82.6,76.7,72.3,99,88,61,29.86,29.76,43,1,43,0.00
2013-9-9,92.7,81.2,73.8,79.9,76.8,72.9,99,88,63,29.84,29.77,17,2,17,0.02
2013-9-10,93.0,83.6,73.9,81.0,78.1,73.6,99,84,63,29.89,29.80,13,3,13,0.00
2013-9-11,92.8,83.7,73.4,82.0,78.3,73.0,99,85,67,29.91,29.83,16,3,16,0.00
2013-9-12,93.4,82.7,73.2,80.6,76.4,72.3,99,83,56,29.87,29.75,15,4,15,0.01
2013-9-13,93.0,82.0,72.1,80.1,76.1,71.2,99,84,58,29.81,29.67,15,3,15,0.00
2013-9-14,92.7,82.9,71.6,80.8,76.4,70.7,99,82,63,29.76,29.68,17,4,17,0.00
2013-9-15,92.8,84.0,76.3,82.9,78.9,75.7,99,85,66,29.82,29.73,15,4,15,0.01
2013-9-16,92.8,85.1,78.1,82.0,79.7,76.8,98,84,69,29.86,29.78,17,7,17,0.06
2013-9-17,92.3,84.8,77.0,83.1,79.8,76.6,99,86,67,29.88,29.78,15,5,15,0.00
2013-9-18,92.8,83.6,74.7,81.1,78.4,74.3,99,85,64,29.84,29.73,15,4,15,0.00
2013-9-19,93.6,85.8,81.0,84.2,80.4,78.1,93,84,68,29.78,29.68,11,2,11,0.01
2013-9-20,90.0,82.9,77.7,84.4,80.5,77.4,99,92,80,29.73,29.57,19,4,19,0.04
2013-9-21,83.3,75.6,71.6,81.3,73.6,70.7,99,94,83,29.68,29.57,17,4,17,0.02
2013-9-22,86.2,76.3,68.2,72.3,69.7,66.6,99,81,61,29.70,29.58,15,3,15,0.00
2013-9-23,86.9,76.2,68.0,80.1,72.9,67.5,99,90,76,29.66,29.57,11,2,11,0.35
2013-9-24,96.1,83.2,76.1,81.5,77.4,73.0,99,85,52,29.72,29.62,11,2,11,0.00
2013-9-25,99.1,83.3,71.4,85.8,74.0,61.9,99,78,37,29.76,29.66,11,1,11,0.00
2013-9-26,95.0,83.7,74.1,81.0,77.3,72.7,98,82,60,29.78,29.69,9,2,9,0.00
2013-9-27,95.4,85.5,79.7,82.9,80.3,78.1,97,85,64,29.81,29.72,11,2,11,0.00
2013-9-28,96.1,85.3,80.1,84.9,80.8,78.4,99,87,64,29.85,29.75,14,3,14,0.06
2013-9-29,95.9,83.5,76.3,82.6,78.3,71.8,99,86,54,29.86,29.74,12,2,12,0.06
2013-9-30,91.8,80.4,73.6,84.4,76.9,73.2,99,90,65,29.79,29.65,12,2,12,0.00
2013-10-1,92.5,79.3,70.9,80.1,76.8,70.3,99,92,57,29.81,29.68,15,2,15,0.35
2013-10-2,95.9,84.1,77.7,83.3,78.5,74.7,98,84,59,29.82,29.72,12,2,12,0.00
2013-10-3,95.5,83.4,76.6,80.2,77.3,75.4,96,83,59,29.81,29.74,9,2,9,0.00
2013-10-4,96.3,84.3,77.2,79.2,76.5,74.7,93,79,53,29.82,29.74,8,1,8,0.00
2013-10-5,99.7,84.1,72.9,84.4,77.3,57.6,99,82,51,29.81,29.70,10,1,10,0.00
2013-10-6,79.5,67.4,56.3,76.1,57.4,48.7,99,73,37,29.99,29.78,17,4,17,0.01
2013-10-7,86.0,68.0,51.6,60.1,50.6,38.5,97,59,23,30.03,29.90,11,1,11,0.00
2013-10-8,91.8,69.1,52.7,65.1,55.5,44.1,99,70,20,29.99,29.85,5,0,5,0.00
2013-10-9,91.6,72.5,58.6,72.1,64.1,46.8,99,79,43,29.95,29.84,8,1,8,0.00
2013-10-10,92.3,79.2,64.8,74.1,70.3,64.2,99,76,52,29.91,29.78,10,1,10,0.00
2013-10-11,94.1,81.6,75.6,80.2,76.2,71.2,99,85,63,29.82,29.73,10,2,10,0.05
2013-10-12,93.0,82.5,78.3,83.5,79.4,76.6,99,91,72,29.89,29.76,17,2,17,0.00
2013-10-13,90.9,79.2,72.7,82.8,77.8,71.8,99,96,75,29.97,29.87,12,1,12,1.19
2013-10-14,93.0,81.5,74.3,79.5,75.5,73.9,99,84,57,29.95,29.81,11,2,11,0.04
2013-10-15,93.0,81.9,76.8,77.4,75.3,73.0,94,81,56,29.86,29.75,12,2,12,0.00
2013-10-16,78.3,73.2,63.9,75.0,70.8,63.0,99,92,82,29.89,29.73,11,2,11,0.00
2013-10-17,84.2,69.4,61.5,70.2,63.6,60.1,99,84,51,29.97,29.83,10,2,10,0.01
2013-10-18,78.1,69.1,63.1,74.1,67.7,62.2,99,95,81,29.88,29.71,17,3,17,0.66
2013-10-19,75.0,65.5,57.6,69.1,59.4,47.1,99,82,53,30.00,29.78,16,4,16,0.28
2013-10-20,80.8,62.9,49.3,65.3,57.1,47.7,99,83,58,29.99,29.82,8,1,8,0.00
2013-10-21,76.1,68.9,60.3,75.0,68.3,57.2,99,98,94,29.88,29.76,8,1,8,0.46
2013-10-22,78.6,68.0,59.0,69.1,63.3,52.7,99,86,56,30.00,29.83,11,2,11,0.01
2013-10-23,90.0,67.1,52.0,61.0,54.3,47.8,99,70,26,30.08,29.95,7,1,7,0.00
2013-10-24,90.5,68.5,53.8,67.1,60.4,52.9,99,80,38,30.11,30.01,7,0,7,0.00
2013-10-25,80.1,67.5,57.4,72.1,64.4,57.0,99,91,72,30.20,30.09,16,3,16,0.00
2013-10-26,88.7,75.6,62.4,70.7,68.2,61.7,99,80,50,30.13,29.95,10,1,10,0.00
2013-10-27,86.4,73.9,66.7,72.5,69.6,65.5,99,87,62,29.99,29.86,11,1,11,0.02
2013-10-28,92.1,75.9,64.6,79.3,70.4,64.2,99,85,52,29.98,29.88,9,1,9,0.00
2013-10-29,91.4,80.3,74.8,77.0,74.5,72.0,97,83,59,29.97,29.86,12,2,12,0.00
2013-10-30,88.3,80.2,76.5,82.6,78.4,76.1,99,95,80,29.91,29.72,17,4,17,0.08
2013-10-31,79.9,75.8,67.1,78.8,75.2,66.7,99,98,96,29.76,29.65,21,5,21,2.16
2013-11-1,90.1,72.2,59.5,74.1,65.2,59.2,99,82,41,29.83,29.70,8,1,8,0.01
2013-11-2,77.0,66.7,58.3,70.9,49.9,37.6,98,58,25,30.11,29.82,17,5,17,0.00
2013-11-3,80.6,62.7,46.0,63.7,53.6,45.3,99,75,43,30.12,29.93,12,2,12,0.00
2013-11-4,72.7,66.6,60.3,71.8,65.5,4.3,99,97,80,29.96,29.84,8,1,8,1.05
2013-11-5,80.1,73.9,68.9,75.9,72.6,68.5,99,96,83,29.91,29.80,12,1,12,0.60
2013-11-6,92.5,74.2,57.6,80.8,69.9,55.0,99,88,49,30.12,29.84,16,2,16,0.18
2013-11-7,68.7,57.8,50.5,55.0,47.6,39.6,92,70,41,30.28,30.10,17,4,17,0.00
2013-11-8,71.4,57.7,46.0,54.7,50.5,45.3,99,79,52,30.26,30.09,17,3,17,0.00
2013-11-9,76.5,63.3,51.4,65.3,58.9,50.9,99,87,66,30.09,30.01,13,2,13,0.00
2013-11-10,73.6,65.8,58.3,63.9,59.8,54.3,99,83,53,30.16,30.05,8,1,8,0.00
2013-11-11,84.7,65.0,55.6,64.8,60.1,55.0,99,86,50,30.14,30.01,7,1,7,0.00
2013-11-12,78.3,61.9,53.6,61.7,56.9,48.6,99,86,45,30.42,30.09,20,5,20,0.00
2013-11-13,61.9,48.0,37.6,48.4,34.7,22.8,93,64,23,30.49,30.31,16,2,16,0.00
2013-11-14,70.0,54.6,40.1,61.2,50.0,37.9,99,85,62,30.31,29.94,13,2,13,0.00
2013-11-15,86.2,68.6,57.6,71.2,64.5,57.2,99,89,53,29.94,29.76,4,0,4,0.00
2013-11-16,83.8,72.9,63.3,78.1,71.5,62.4,99,96,82,29.82,29.66,10,2,13,0.00
2013-11-17,85.8,76.0,71.2,79.5,74.3,70.7,99,95,80,29.80,29.66,12,3,12,0.00
2013-11-18,82.6,72.0,66.7,78.3,69.0,17.8,99,91,12,29.96,29.79,16,2,16,0.00
2013-11-19,70.9,65.2,60.8,63.7,59.1,53.1,94,81,69,29.99,29.88,19,5,19,0.00
2013-11-20,75.6,69.7,64.0,72.3,67.1,61.3,98,92,82,29.91,29.77,15,3,15,0.00
2013-11-21,88.3,76.2,71.1,80.4,73.8,70.5,99,93,71,29.93,29.82,7,1,7,0.05
2013-11-22,72.9,60.0,43.3,71.8,59.3,42.8,99,98,97,30.17,29.90,15,4,15,0.93
2013-11-23,48.9,45.5,42.1,48.7,45.2,41.9,99,99,97,30.26,30.15,16,6,16,0.00
2013-11-24,50.4,46.9,43.3,48.7,40.5,36.3,99,79,61,30.31,30.19,13,3,13,0.00
2013-11-25,46.0,43.2,41.0,43.3,41.3,37.6,99,94,73,30.20,29.90,16,4,16,0.31
2013-11-26,48.0,42.7,40.5,43.7,41.6,40.3,99,96,82,30.22,29.94,16,6,19,0.43
2013-11-27,56.3,43.2,34.2,42.8,34.8,30.6,99,75,42,30.36,30.21,15,2,15,0.00
2013-11-28,63.9,46.4,34.0,51.1,41.6,30.7,99,85,60,30.37,30.26,9,1,9,0.00
2013-11-29,65.1,52.4,44.1,52.3,47.4,43.5,99,84,54,30.39,30.28,16,3,16,0.00
2013-11-30,77.4,58.6,44.8,64.2,54.0,44.1,99,87,52,30.31,30.11,8,1,8,0.00
2013-12-1,81.3,63.1,51.8,68.0,60.4,51.3,99,92,56,30.13,29.88,3,0,6,0.00
2013-12-2,74.3,65.4,60.1,68.9,63.8,59.7,99,95,81,29.89,29.61,13,5,13,0.00
2013-12-3,77.2,68.1,59.9,71.6,66.4,59.5,99,95,81,29.66,29.53,19,6,19,0.01
2013-12-4,80.6,71.2,65.7,75.0,69.9,64.8,99,96,81,29.70,29.60,12,3,12,17.65
2013-12-5,74.1,57.5,40.8,73.8,55.5,24.8,99,94,18,29.91,29.68,17,5,17,23.50
2013-12-6,45.0,39.5,35.4,41.4,38.3,32.4,99,95,83,30.28,29.88,19,7,19,0.00
2013-12-7,39.0,35.2,33.8,35.2,33.1,31.5,97,92,88,30.34,30.19,17,3,17,0.00
2013-12-8,50.4,42.9,35.2,47.3,40.9,34.7,99,93,78,30.21,29.95,9,1,9,0.00
2013-12-9,54.1,49.0,42.6,53.2,48.5,42.3,99,98,96,30.14,29.90,13,3,13,0.04
2013-12-10,54.0,42.5,33.4,42.3,34.1,30.6,99,74,44,30.33,30.14,18,6,18,0.01
2013-12-11,58.5,49.2,42.6,47.5,40.9,33.1,83,73,65,30.37,30.20,7,1,7,0.00
2013-12-12,57.6,47.3,40.1,45.0,40.8,38.7,99,80,52,30.43,30.27,9,1,9,0.00
2013-12-13,70.7,54.7,38.7,65.3,53.1,38.5,99,95,80,30.27,29.75,11,1,11,0.00
2013-12-14,68.7,55.0,41.7,58.8,49.9,36.0,99,84,52,30.19,29.77,23,6,23,0.01
2013-12-15,63.3,45.3,35.8,37.6,34.0,30.2,99,69,31,30.32,30.19,11,2,11,0.00
2013-12-16,70.7,47.3,30.4,45.5,36.9,30.2,99,75,28,30.28,30.13,8,1,8,0.00
2013-12-17,79.2,53.3,38.3,59.0,46.5,38.1,99,82,39,30.25,30.12,8,1,8,0.00
2013-12-18,73.0,55.5,41.5,64.8,51.5,41.4,99,88,59,30.21,30.02,10,1,10,0.01
2013-12-19,80.4,68.0,60.3,71.4,65.2,57.0,99,92,71,30.03,29.75,15,4,15,0.07
2013-12-20,79.7,71.1,67.6,74.8,70.1,67.3,99,97,84,29.79,29.63,11,3,11,0.00
2013-12-21,72.7,67.1,54.3,71.8,65.9,53.2,99,96,78,29.69,29.47,21,4,21,0.11
2013-12-22,70.3,57.9,43.7,63.1,51.2,3.7,99,81,42,30.22,29.69,15,4,15,0.02
2013-12-23,61.2,44.9,35.1,37.6,34.4,31.1,91,70,34,30.44,30.22,19,4,19,0.00
2013-12-24,58.3,43.7,31.1,47.3,39.6,30.9,99,86,63,30.47,30.22,15,2,15,0.00
2013-12-25,63.0,53.5,41.4,55.4,50.6,41.2,99,90,73,30.25,30.15,20,4,20,0.00
2013-12-26,66.4,55.1,49.5,52.7,47.6,41.9,99,77,43,30.29,30.15,15,2,15,0.00
2013-12-27,59.4,52.2,47.3,52.7,47.4,42.1,99,85,62,30.29,30.17,12,1,12,0.05
2013-12-28,70.5,51.7,44.6,48.6,43.8,35.2,99,77,31,30.21,29.93,5,1,5,0.00
2013-12-29,73.8,54.2,38.8,59.4,49.0,38.7,99,85,45,30.02,29.88,8,0,8,0.00
2013-12-30,55.4,43.6,38.8,54.1,39.1,35.4,97,84,78,30.30,30.00,18,6,18,0.00
2013-12-31,52.3,44.4,41.0,45.3,40.2,36.1,97,85,66,30.35,30.19,9,1,9,0.07
2014-1-1,63.9,54.2,44.8,61.5,53.4,44.1,99,97,90,30.20,29.90,4,0,4,0.01
2014-1-2,59.7,48.4,38.7,59.4,38.6,30.6,99,71,43,30.36,29.93,24,7,24,0.02